SKG792 CNR4-CYHM

Flight info

Callsign SKG792
Flight time 0h 38m
Altitude 23000
Route YWT
Aircraft PC12/L-SDFGRWY/S

Departure

Time 2026-05-04 01:11
Airport Tobermory Airport (CNR4)

Arrival

Time 2026-05-04 01:50
Airport John C. Munro Hamilton International Airport (CYHM)
Time Latitude Longitude Altitude Speed Heading
2026-05-04 01:06 45.22508 -81.63483 689 ft 0 kts 339°
2026-05-04 01:09 45.22493 -81.63481 690 ft 7 kts 137°
2026-05-04 01:09 45.22434 -81.63441 691 ft 12 kts 156°
2026-05-04 01:09 45.22354 -81.63440 684 ft 9 kts 199°
2026-05-04 01:10 45.22318 -81.63439 688 ft 0 kts 110°
2026-05-04 01:10 45.22315 -81.63427 687 ft 11 kts 109°
2026-05-04 01:10 45.22242 -81.63138 690 ft 50 kts 109°
2026-05-04 01:10 45.22091 -81.62492 688 ft 82 kts 112°
2026-05-04 01:11 45.21921 -81.61690 830 ft 93 kts 115°
2026-05-04 01:11 45.21724 -81.60739 843 ft 98 kts 114°
2026-05-04 01:11 45.21527 -81.59822 1114 ft 96 kts 114°
2026-05-04 01:11 45.21361 -81.58901 1371 ft 102 kts 116°
2026-05-04 01:12 45.21138 -81.57838 1519 ft 116 kts 137°
2026-05-04 01:12 45.20516 -81.57277 1644 ft 110 kts 176°
2026-05-04 01:12 45.19726 -81.56859 1803 ft 133 kts 172°
2026-05-04 01:12 45.18794 -81.56305 2049 ft 151 kts 168°
2026-05-04 01:13 45.17854 -81.55659 2560 ft 151 kts 167°
2026-05-04 01:13 45.16897 -81.54990 2986 ft 155 kts 167°
2026-05-04 01:13 45.15920 -81.54301 3435 ft 158 kts 166°
2026-05-04 01:13 45.14919 -81.53594 3840 ft 163 kts 165°
2026-05-04 01:14 45.13902 -81.52874 4284 ft 165 kts 164°
2026-05-04 01:14 45.12864 -81.52141 4733 ft 167 kts 165°
2026-05-04 01:14 45.11822 -81.51406 5175 ft 169 kts 164°
2026-05-04 01:14 45.10767 -81.50662 5621 ft 170 kts 163°
2026-05-04 01:15 45.09708 -81.49917 6074 ft 170 kts 164°
2026-05-04 01:15 45.08644 -81.49088 6502 ft 174 kts 158°
2026-05-04 01:15 45.07606 -81.48188 6934 ft 175 kts 158°
2026-05-04 01:15 45.06556 -81.47291 7359 ft 177 kts 158°
2026-05-04 01:16 45.05489 -81.46392 7760 ft 180 kts 158°
2026-05-04 01:16 45.04409 -81.45481 8208 ft 181 kts 158°
2026-05-04 01:16 45.03323 -81.44565 8645 ft 183 kts 158°
2026-05-04 01:16 45.02230 -81.43644 9085 ft 184 kts 158°
2026-05-04 01:17 45.01128 -81.42716 9527 ft 185 kts 157°
2026-05-04 01:17 45.00019 -81.41782 9926 ft 186 kts 157°
2026-05-04 01:17 44.98898 -81.40839 10322 ft 188 kts 157°
2026-05-04 01:17 44.97770 -81.39890 10723 ft 189 kts 158°
2026-05-04 01:18 44.96632 -81.38934 11116 ft 191 kts 158°
2026-05-04 01:18 44.95489 -81.37973 11506 ft 192 kts 158°
2026-05-04 01:18 44.94335 -81.37003 11907 ft 194 kts 158°
2026-05-04 01:18 44.93171 -81.36026 12301 ft 195 kts 158°
2026-05-04 01:19 44.92000 -81.35044 12694 ft 197 kts 158°
2026-05-04 01:19 44.90821 -81.34054 13090 ft 198 kts 158°
2026-05-04 01:19 44.89635 -81.33060 13496 ft 199 kts 158°
2026-05-04 01:19 44.88439 -81.32058 13849 ft 201 kts 158°
2026-05-04 01:20 44.87236 -81.31051 14196 ft 202 kts 158°
2026-05-04 01:20 44.86025 -81.30036 14535 ft 203 kts 158°
2026-05-04 01:20 44.84806 -81.29016 14876 ft 204 kts 158°
2026-05-04 01:20 44.83580 -81.27991 15217 ft 206 kts 158°
2026-05-04 01:21 44.82345 -81.26959 15585 ft 207 kts 158°
2026-05-04 01:21 44.81103 -81.25920 15983 ft 208 kts 157°
2026-05-04 01:21 44.79852 -81.24875 16404 ft 210 kts 158°
2026-05-04 01:21 44.78592 -81.23824 16819 ft 211 kts 158°
2026-05-04 01:22 44.77321 -81.22764 17235 ft 213 kts 158°
2026-05-04 01:22 44.76043 -81.21698 17655 ft 214 kts 158°
2026-05-04 01:22 44.74754 -81.20624 18071 ft 216 kts 158°
2026-05-04 01:22 44.73456 -81.19543 18433 ft 218 kts 158°
2026-05-04 01:23 44.72148 -81.18454 18782 ft 220 kts 157°
2026-05-04 01:23 44.70826 -81.17354 19137 ft 221 kts 157°
2026-05-04 01:23 44.69478 -81.16233 19496 ft 223 kts 157°
2026-05-04 01:23 44.68138 -81.15120 19853 ft 225 kts 157°
2026-05-04 01:24 44.66786 -81.13996 20203 ft 227 kts 157°
2026-05-04 01:24 44.65425 -81.12866 20558 ft 228 kts 157°
2026-05-04 01:24 44.64052 -81.11727 20900 ft 230 kts 157°
2026-05-04 01:24 44.62671 -81.10582 21227 ft 231 kts 157°
2026-05-04 01:25 44.61279 -81.09429 21499 ft 233 kts 157°
2026-05-04 01:25 44.59875 -81.08266 21784 ft 235 kts 157°
2026-05-04 01:25 44.58465 -81.07098 22066 ft 236 kts 157°
2026-05-04 01:25 44.57044 -81.05923 22343 ft 238 kts 157°
2026-05-04 01:26 44.55615 -81.04741 22621 ft 239 kts 157°
2026-05-04 01:26 44.54167 -81.03546 22783 ft 246 kts 157°
2026-05-04 01:26 44.52651 -81.02301 22791 ft 258 kts 156°
2026-05-04 01:26 44.51071 -81.00999 22796 ft 268 kts 156°
2026-05-04 01:27 44.49439 -80.99651 22799 ft 276 kts 156°
2026-05-04 01:27 44.47767 -80.98270 22810 ft 282 kts 156°
2026-05-04 01:27 44.46060 -80.96864 22811 ft 287 kts 156°
2026-05-04 01:27 44.44330 -80.95439 22814 ft 291 kts 155°
2026-05-04 01:28 44.42578 -80.93998 22819 ft 293 kts 155°
2026-05-04 01:28 44.40812 -80.92545 22828 ft 295 kts 155°
2026-05-04 01:28 44.39039 -80.91089 22830 ft 297 kts 155°
2026-05-04 01:28 44.37253 -80.89623 22826 ft 298 kts 155°
2026-05-04 01:29 44.35512 -80.88046 22827 ft 300 kts 148°
2026-05-04 01:29 44.33828 -80.86328 22829 ft 299 kts 150°
2026-05-04 01:29 44.32072 -80.84762 22835 ft 300 kts 153°
2026-05-04 01:29 44.30311 -80.83188 22837 ft 301 kts 151°
2026-05-04 01:30 44.28574 -80.81544 22832 ft 302 kts 150°
2026-05-04 01:30 44.26844 -80.79891 22881 ft 300 kts 150°
2026-05-04 01:30 44.25118 -80.78273 22962 ft 299 kts 151°
2026-05-04 01:30 44.23389 -80.76668 22968 ft 299 kts 151°
2026-05-04 01:31 44.21655 -80.75050 22973 ft 300 kts 151°
2026-05-04 01:31 44.19919 -80.73424 22975 ft 301 kts 151°
2026-05-04 01:31 44.18183 -80.71800 22975 ft 301 kts 151°
2026-05-04 01:31 44.16443 -80.70178 22975 ft 301 kts 151°
2026-05-04 01:32 44.14699 -80.68552 22980 ft 302 kts 151°
2026-05-04 01:32 44.12953 -80.66925 22980 ft 302 kts 151°
2026-05-04 01:32 44.11183 -80.65280 22664 ft 312 kts 151°
2026-05-04 01:32 44.09350 -80.63580 22222 ft 321 kts 151°
2026-05-04 01:33 44.07496 -80.61854 21758 ft 319 kts 151°
2026-05-04 01:33 44.05637 -80.60122 21310 ft 316 kts 151°
2026-05-04 01:33 44.03813 -80.58429 20870 ft 314 kts 151°
2026-05-04 01:33 44.02001 -80.56750 20422 ft 312 kts 151°
2026-05-04 01:34 44.00203 -80.55084 19999 ft 309 kts 151°
2026-05-04 01:34 43.98418 -80.53430 19580 ft 307 kts 151°
2026-05-04 01:34 43.96647 -80.51791 19188 ft 305 kts 151°
2026-05-04 01:34 43.94888 -80.50163 18791 ft 303 kts 151°
2026-05-04 01:35 43.93132 -80.48540 18405 ft 302 kts 151°
2026-05-04 01:35 43.91390 -80.46931 18008 ft 300 kts 151°
2026-05-04 01:35 43.89656 -80.45331 17579 ft 298 kts 152°
2026-05-04 01:35 43.87934 -80.43743 17157 ft 297 kts 152°
2026-05-04 01:36 43.86219 -80.42163 16746 ft 295 kts 152°
2026-05-04 01:36 43.84514 -80.40592 16338 ft 294 kts 152°
2026-05-04 01:36 43.82814 -80.39027 15937 ft 293 kts 152°
2026-05-04 01:36 43.81122 -80.37471 15530 ft 292 kts 152°
2026-05-04 01:37 43.79435 -80.35921 15138 ft 291 kts 152°
2026-05-04 01:37 43.77753 -80.34376 14758 ft 290 kts 152°
2026-05-04 01:37 43.76077 -80.32837 14382 ft 289 kts 152°
2026-05-04 01:37 43.74405 -80.31305 14008 ft 288 kts 152°
2026-05-04 01:38 43.72739 -80.29777 13640 ft 287 kts 152°
2026-05-04 01:38 43.71073 -80.28251 13230 ft 286 kts 152°
2026-05-04 01:38 43.69414 -80.26733 12826 ft 286 kts 152°
2026-05-04 01:38 43.67760 -80.25219 12427 ft 285 kts 152°
2026-05-04 01:39 43.66107 -80.23709 12036 ft 284 kts 153°
2026-05-04 01:39 43.64459 -80.22203 11648 ft 284 kts 153°
2026-05-04 01:39 43.62813 -80.20700 11262 ft 283 kts 153°
2026-05-04 01:39 43.61172 -80.19203 10888 ft 282 kts 153°
2026-05-04 01:40 43.59537 -80.17713 10498 ft 281 kts 153°
2026-05-04 01:40 43.57908 -80.16229 10114 ft 280 kts 152°
2026-05-04 01:40 43.56293 -80.14756 9761 ft 278 kts 153°
2026-05-04 01:40 43.54685 -80.13291 9372 ft 276 kts 153°
2026-05-04 01:41 43.53607 -80.12311 9112 ft 274 kts 153°
2026-05-04 01:41 43.52019 -80.10868 8733 ft 273 kts 153°
2026-05-04 01:41 43.50441 -80.09435 8358 ft 271 kts 154°
2026-05-04 01:41 43.48875 -80.08014 7995 ft 269 kts 154°
2026-05-04 01:42 43.47320 -80.06603 7635 ft 266 kts 154°
2026-05-04 01:42 43.45789 -80.05214 7288 ft 262 kts 154°
2026-05-04 01:42 43.44278 -80.03844 6956 ft 259 kts 155°
2026-05-04 01:42 43.42779 -80.02489 6619 ft 257 kts 155°
2026-05-04 01:43 43.41297 -80.01147 6306 ft 253 kts 155°
2026-05-04 01:43 43.39841 -79.99828 5977 ft 248 kts 155°
2026-05-04 01:43 43.38410 -79.98534 5634 ft 244 kts 156°
2026-05-04 01:43 43.37001 -79.97263 5314 ft 241 kts 156°
2026-05-04 01:44 43.35612 -79.96010 5000 ft 237 kts 156°
2026-05-04 01:44 43.34250 -79.94779 4696 ft 231 kts 157°
2026-05-04 01:44 43.32918 -79.93578 4394 ft 227 kts 157°
2026-05-04 01:44 43.31609 -79.92398 4095 ft 223 kts 158°
2026-05-04 01:45 43.30343 -79.91255 3815 ft 211 kts 158°
2026-05-04 01:45 43.29173 -79.90193 3572 ft 192 kts 159°
2026-05-04 01:45 43.27094 -79.88327 3165 ft 172 kts 161°
2026-05-04 01:46 43.26058 -79.87413 2914 ft 182 kts 160°
2026-05-04 01:46 43.24970 -79.86444 2643 ft 190 kts 159°
2026-05-04 01:46 43.23829 -79.85764 2385 ft 163 kts 182°
2026-05-04 01:46 43.22776 -79.85693 2168 ft 141 kts 198°
2026-05-04 01:47 43.21908 -79.85995 1997 ft 119 kts 211°
2026-05-04 01:47 43.21234 -79.86505 1834 ft 104 kts 220°
2026-05-04 01:47 43.20738 -79.87104 1700 ft 85 kts 230°
2026-05-04 01:47 43.20369 -79.87686 1570 ft 79 kts 231°
2026-05-04 01:48 43.20005 -79.88254 1457 ft 80 kts 230°
2026-05-04 01:48 43.19627 -79.88849 1344 ft 85 kts 227°
2026-05-04 01:48 43.19229 -79.89466 1251 ft 86 kts 229°
2026-05-04 01:48 43.18830 -79.90096 1109 ft 91 kts 229°
2026-05-04 01:49 43.18405 -79.90752 988 ft 93 kts 226°
2026-05-04 01:49 43.17971 -79.91440 857 ft 97 kts 229°
2026-05-04 01:49 43.17548 -79.92108 774 ft 83 kts 227°
2026-05-04 01:49 43.17220 -79.92614 773 ft 62 kts 229°
2026-05-04 01:50 43.16960 -79.93024 768 ft 52 kts 228°
2026-05-04 01:50 43.16744 -79.93361 775 ft 42 kts 229°
2026-05-04 01:50 43.16604 -79.93348 773 ft 22 kts 133°
2026-05-04 01:50 43.16499 -79.93412 773 ft 18 kts 229°
2026-05-04 01:51 43.16418 -79.93516 773 ft 15 kts 195°
2026-05-04 01:51 43.16386 -79.93423 773 ft 15 kts 68°
2026-05-04 01:51 43.16392 -79.93398 773 ft 0 kts 82°